#timestamp,LO_Frequency,Hit,StdDev 
1541505615.4,286046990.0,N
1541505635.2,286046989.6,N
1541505655.1,286046989.5,N
1541505656.0,286046989.5,N
1541505675.8,286046990.0,N
1541505695.7,286046988.9,N
1541505715.5,286046989.2,N
1541505735.3,286046988.7,N
1541505755.2,286046987.6,N
1541505775.0,286046986.7,N
1541505775.9,286046986.7,N
1541505795.7,286046986.5,N
1541505815.6,286046982.2,Y
1541505835.4,286046988.6,P
1541505855.3,286046989.5,P
1541505875.1,286046988.3,P
1541505895.8,286046987.5,Y
1541505915.7,286046994.4,P
1541505935.5,286046990.8,P
1541505955.4,286046989.1,P
1541505975.2,286046991.5,Y
1541505995.0,286046998.3,P
1541505995.9,286046998.3,N
1541506015.8,286047002.0,N
1541506035.6,286046998.8,N
1541506055.5,286046996.9,N
1541506075.3,286046995.4,N
1541506095.1,286046995.8,N
1541506115.9,286046996.5,N
1541506135.7,286046999.3,N
1541506155.5,286047001.3,N
1541506175.4,286047000.2,N
1541506195.2,286046996.8,N
1541506215.1,286046996.4,N
1541506216.0,286046996.4,N
1541506235.8,286046993.5,N
1541506255.6,286046995.8,N
1541506275.5,286046995.6,N
1541506295.3,286046995.1,N
1541506315.2,286046998.0,N
1541506335.9,286046999.3,N
1541506355.7,286046999.1,N
1541506375.6,286046996.6,N
1541506395.4,286046997.7,N
1541506415.2,286046999.1,N
1541506435.1,286046998.5,N
1541506436.0,286046998.5,N
1541506455.8,286047002.0,N
1541506475.7,286047004.0,N
1541506495.5,286047004.6,N
1541506515.3,286047009.7,Y
1541506535.2,286047012.3,P
1541506555.0,286047009.6,N
1541506555.9,286047009.6,N
1541506575.7,286047012.9,N
1541506595.6,286047014.0,N
1541506615.4,286047012.4,N
1541506635.3,286047009.8,N
1541506655.1,286047013.9,N
1541506656.0,286047013.9,N
1541506675.8,286047014.4,Y
1541506695.7,286047010.7,P
1541506715.5,286047011.6,P
1541506735.3,286047012.5,P
1541506755.2,286047018.4,Y
1541506775.0,286047004.8,P
1541506775.9,286047004.8,N
1541506795.8,286047003.1,N
1541506815.6,286047002.1,N
1541506835.4,286047004.0,N
1541506855.3,286047005.7,N
1541506875.1,286047007.6,N
1541506895.9,286047009.2,Y
1541506915.7,286047004.3,P
1541506935.5,286047007.1,P
1541506955.4,286047008.9,P
1541506975.2,286047006.5,Y
1541506995.0,286046997.9,P
1541506995.9,286046997.9,N
1541507015.8,286046996.0,N
1541507035.6,286046994.1,N
1541507055.5,286046993.1,N
1541507075.3,286046986.9,Y
1541507095.1,286046990.2,P
1541507115.9,286046994.2,N
1541507135.7,286046994.9,N
1541507155.5,286046999.0,N
1541507175.4,286047001.8,N
1541507195.2,286047005.3,N
1541507215.1,286047002.9,N
1541507216.0,286047002.9,N
1541507235.8,286047003.6,N
1541507255.6,286047001.7,N
1541507275.5,286047002.0,N
1541507295.3,286047003.1,N
1541507315.1,286046999.0,N
1541507335.9,286046997.9,N
1541507355.7,286046997.3,N
1541507375.6,286046997.0,N
1541507395.4,286046995.0,N
1541507415.2,286046995.5,N
1541507435.1,286046992.2,N
1541507436.0,286046992.2,N
1541507455.8,286046990.3,N
1541507475.6,286046986.9,N
1541507495.5,286046984.4,Y
1541507515.3,286046988.4,P
1541507535.2,286046988.0,N
1541507555.9,286046986.1,P
1541507575.7,286046982.9,Y
1541507595.6,286046990.3,P
1541507615.4,286046987.1,P
1541507635.2,286046985.3,P
1541507655.1,286046985.6,Y
1541507656.0,286046985.6,P
1541507675.8,286046997.4,N
1541507695.7,286047000.9,N
1541507715.5,286047004.0,N
1541507735.3,286047004.9,N
1541507755.2,286047005.1,N
1541507775.0,286047006.9,N
1541507775.9,286047006.9,N
1541507795.8,286047008.3,N
1541507815.6,286047013.3,N
1541507835.4,286047011.7,N
1541507855.3,286047006.4,N
1541507875.1,286047004.7,N
1541507895.8,286047004.0,N
1541507915.7,286047000.1,N
1541507935.5,286047000.7,N
1541507955.3,286046999.0,N
1541507975.2,286046994.9,N
1541507995.0,286046997.6,N
1541507995.9,286046997.6,N
1541508015.8,286046998.5,N
1541508035.6,286047002.1,N
1541508055.4,286047007.2,N
1541508075.3,286047006.4,N
1541508095.1,286047006.2,N
1541508115.8,286047008.6,N
1541508135.7,286047008.1,N
1541508155.5,286047011.8,N
1541508175.4,286047008.1,N
1541508195.2,286047004.9,N
1541508215.0,286047003.9,N
1541508215.9,286047003.9,N
1541508235.8,286047001.2,N
1541508255.6,286046998.6,N
1541508275.4,286046993.6,N
1541508295.3,286046994.6,N
1541508315.1,286046992.5,N
1541508335.9,286046994.4,N
1541508355.7,286046992.9,N
1541508375.5,286046988.9,N
1541508395.4,286046985.5,N
1541508415.2,286046985.7,N
1541508435.0,286046984.2,N
1541508435.9,286046984.2,N
1541508455.8,286046983.1,N
1541508475.6,286046980.9,N
1541508495.5,286046981.5,N
1541508515.3,286046977.8,N
1541508535.1,286046978.3,N
1541508555.9,286046974.2,N
1541508575.7,286046975.2,N
1541508595.5,286046976.3,N
1541508615.4,286046973.5,N
1541508635.2,286046970.1,N
1541508655.1,286046966.9,N
1541508656.0,286046966.9,N
1541508675.8,286046966.4,N
1541508695.6,286046972.0,N
1541508715.5,286046973.7,N
1541508735.3,286046969.6,N
1541508755.1,286046967.9,N
1541508775.9,286046966.9,Y
1541508795.7,286046984.0,P
1541508815.6,286046983.9,P
1541508835.4,286046984.6,P
1541508855.2,286046985.3,Y
1541508875.1,286047005.3,P
1541508876.0,286047005.3,N
1541508895.8,286047005.5,N
1541508915.7,286047003.0,N
1541508935.5,286047003.3,N
1541508955.3,286047001.3,N
1541508975.2,286047000.1,N
1541508995.9,286046998.5,N
1541509015.7,286047001.0,N
1541509035.6,286046998.4,N
1541509055.4,286046998.7,N
1541509075.2,286047000.4,N
1541509095.1,286047000.4,N
1541509096.0,286047000.4,N
1541509115.8,286046998.1,N
1541509135.7,286047001.2,N
1541509155.5,286047001.0,N
1541509175.3,286047001.8,N
1541509195.2,286047003.9,N
